홈 사이트맵 즐겨찾기
ID/PW찾기  |  회원가입
02. 부품-장터 (189)
03. 음반-장터 (202)
07. 계측기-장터 (155)
08. 라디오-장터 (14)
16. 오늘장터-매물 (1,710)
17. 어제장터-매물 (1,990)
List of Articles
번호 분류 제목 글쓴이 날짜 조회 수
공지 RF 무선기기 장터필수 공지사항 16 소리전자 2005.12.07 42400
70942 판매 Antenna& Cable Analyzer newfile 태평계측기 2019.12.12 20
70941 판매 TELEWAVE WATT METER 44D /44A/44AP/44L1/44L1P (신품) newfile 태평계측기 2019.12.12 6
70940 판매 Bird Element 신품 중고 보유 장비 판매 newfile 태평계측기 2019.12.12 4
70939 판매 WATT METER Bird43 newfile 태평계측기 2019.12.12 5
70938 판매 CDMA Mobile Station Test Set E8285A newfile 태평계측기 2019.12.12 1
70937 판매 Frequency Counter FC-2130 newfile 태평계측기 2019.12.12 4
70936 판매 RF COMMUNICATION TEST SET HP8920A newfile 태평계측기 2019.12.12 1
70935 판매 f.w bell 615 gaussmeter new 이희옥 2019.12.12 21
70934 판매 credix frequency counter fc-300 new 이희옥 2019.12.12 15
70933 판매 HP 3325B Synthesizer/Function Generator new 이희옥 2019.12.12 15
70932 판매 Walker Gaussmeter MG-4D new 이희옥 2019.12.12 17
70931 완료 아이콤핸디 IC-W32A 무료배송 newfile 임환철 2019.12.12 139
70930 판매 여러가지 외부스피커 판매 합니다 newfile 김영일 2019.12.11 98
70929 판매 KENWOOD TS-890S(HF/50Mhz/100W) 판매 및 교환(신품) newfile 김영일 2019.12.11 47
70928 판매 ICOM IC-7300(HF/50Mhz/100W) 판매 및 교환(신품) newfile 김영일 2019.12.11 42
70927 판매 YAESU FT-991A(HF/50/145/430Mhz) 판매 및 교환(신품) newfile 김영일 2019.12.11 48
70926 판매 다이아몬드 MD-200(3.5Mhz) 차량용안테나 판매 newfile 김영일 2019.12.11 63
70925 판매 YAESU FT-3D(R)(145/430MHZ)Digital/Analog C4FM/FM 판매 newfile 김영일 2019.12.11 33
70924 판매 KENPRO HR-1300 로테이터 판매 newfile 김영일 2019.12.11 35
70923 판매 ICOM IC-703(HF/50Mhz/오토튜너내장) 판매 newfile 김영일 2019.12.11 30
70922 판매 ICOM IC-970(V/UHF) 판매 및 교환 newfile 김영일 2019.12.11 33
70921 판매 ICOM IC-736(HF/50Mhz/100W) 판매 및 교환 newfile 김영일 2019.12.11 50
70920 판매 외재전원선 3.5SQ 3P newfile 노춘근 2019.12.11 95
70919 판매 부품용 일제 무전기 일괄 newfile 정동래 2019.12.11 239
70918 판매 DC 13.8V-7A 파워써플라이 이기봉 2019.12.11 111
70917 판매 모토로라 디지털 멀티 배터리 테스터기 이기봉 2019.12.11 67
70916 판매 신품 모토로라 무전기 외부 스피커 마이크 2개 이기봉 2019.12.11 57
70915 판매 구형 무전기 (도쿄 하이파워) 이기봉 2019.12.11 73
70914 판매 구형 생활 무전기 (소니) 이기봉 2019.12.11 38
70913 판매 RF 관련 악세사리 이기봉 2019.12.11 73
Board Pagination Prev 1 2 3 4 5 6 7 8 9 10 ... 2365 Next
/ 2365
회사소개 제휴문의 이용약관 개인정보취급방침 이메일주소무단수집거부 사이트맵